Weather History for 03973 - November, 2013

Change the Weather History Date:

Wednesday, November 13, 2013

  Actual Average Record
Temperature  
Mean Temperature 45 °F -  
Max Temperature 49 °F - - ()
Min Temperature 41 °F - - ()
Degree Days  
Heating Degree Days 20    
Moisture  
Dew Point 43 °F    
Average Humidity 92    
Maximum Humidity 100    
Minimum Humidity 80    
Precipitation  
Precipitation 0.20 in - - ()
Sea Level Pressure  
Sea Level Pressure 30.16 in    
Wind  
Wind Speed 13 mph ()    
Max Wind Speed 22 mph    
Max Gust Speed 34 mph    
Visibility 6.0 miles    
Events Rain    
T = Trace of Precipitation, MM = Missing Value Source: Averaged Metar Reports

Daily Weather History Graph

Daily Weather History Graph

Search for Another Location

Airport or City:

Trip Planner

Search our weather history database for the weather conditions in past years. The results will help you decide how hot, cold, wet, or windy it might be!

Date:

Astronomy

Nov. 13, 2013 Rise Set
Actual Time 7:58 AM GMT 4:39 PM GMT
Civil Twilight 7:19 AM GMT 5:18 PM GMT
Nautical Twilight 6:36 AM GMT 6:01 PM GMT
Astronomical Twilight 5:55 AM GMT 6:43 PM GMT
Moon 2:51 PM GMT (11/13) 3:01 AM GMT (11/13)
Length of Visible Light 9h 58m
Length of Day
8h 40m
Waxing Gibbous, 83% of the Moon is Illuminated
Nov 13
Waxing Gibbous
Nov 17
Full
Nov 25
Last Quarter
Dec 3
New
Dec 9
First Quarter

Hourly Weather History & Observations

Time (GMT) Temp. Windchill Dew Point Humidity Pressure Visibility Wind Dir Wind Speed Gust Speed Precip Events Conditions
12:00 AM 41 °F - 37 °F 80% 30.53 in - SSW 6.7 mph - -  
6:00 AM 42.8 °F 38.0 °F 39.2 °F 87% 30.36 in 6.2 mi South 8.1 mph - N/A   Mostly Cloudy
7:00 AM 42.8 °F 38.6 °F 39.2 °F 87% 30.33 in 6.2 mi South 6.9 mph - N/A   Overcast
8:00 AM 42.8 °F 36.2 °F 41.0 °F 93% 30.30 in 6.2 mi South 12.7 mph - N/A   Mostly Cloudy
8:30 AM 42.8 °F 34.3 °F 39.2 °F 87% 30.27 in 6.2 mi South 19.6 mph - N/A   Mostly Cloudy
9:00 AM 42.8 °F 36.2 °F 41.0 °F 93% 30.27 in 6.2 mi South 12.7 mph - N/A   Mostly Cloudy
9:30 AM 42.8 °F 35.8 °F 41.0 °F 93% 30.27 in 6.2 mi South 13.8 mph - N/A   Mostly Cloudy
10:00 AM 42.8 °F 34.5 °F 41.0 °F 93% 30.24 in 6.2 mi South 18.4 mph - N/A   Light Drizzle
10:30 AM 42.8 °F 34.8 °F 41.0 °F 93% 30.24 in 6.2 mi South 17.3 mph - N/A   Light Drizzle
11:00 AM 42.8 °F 36.6 °F 41.0 °F 93% 30.24 in 6.2 mi South 11.5 mph - N/A Rain Light Rain
11:30 AM 42.8 °F 35.8 °F 42.8 °F 100% 30.21 in 6.2 mi South 13.8 mph - N/A   Light Drizzle
12:00 PM 43 °F - 43 °F 99% 30.22 in 5 mi South 13.4 mph - - Rain Rain
12:00 PM 42.8 °F 36.2 °F 42.8 °F 100% 30.18 in 5.0 mi South 12.7 mph - N/A Rain Rain
12:30 PM 42.8 °F 35.1 °F 42.8 °F 100% 30.15 in 6.2 mi South 16.1 mph - N/A Rain Light Rain
1:00 PM 46.4 °F 39.0 °F 46.4 °F 100% 30.12 in 6.2 mi South 19.6 mph 33.4 mph N/A Rain Light Rain
1:30 PM 46.4 °F 38.5 °F 46.4 °F 100% 30.09 in 3.1 mi South 21.9 mph 34.5 mph N/A Rain Light Rain
2:00 PM 46.4 °F 39.0 °F 46.4 °F 100% 30.06 in 6.2 mi SSW 19.6 mph - N/A Rain Light Rain
2:30 PM 48.2 °F - 46.4 °F 93% 30.06 in 6.2 mi SSW 19.6 mph - N/A   Scattered Clouds
3:00 PM 50.0 °F - 46.4 °F 87% 30.06 in 6.2 mi WSW 16.1 mph 29.9 mph N/A Rain Light Rain Showers
3:30 PM 48.2 °F - 44.6 °F 87% 30.04 in 6.2 mi WSW 17.3 mph - N/A   Scattered Clouds
4:00 PM 48.2 °F - 44.6 °F 87% 30.04 in 6.2 mi SW 19.6 mph - N/A   Partly Cloudy
4:30 PM 48.2 °F - 44.6 °F 87% 30.04 in 6.2 mi WSW 19.6 mph - N/A Rain Light Rain Showers
5:00 PM 46.4 °F 39.2 °F 44.6 °F 93% 30.04 in 6.2 mi WSW 18.4 mph - N/A   Scattered Clouds
5:30 PM 46.4 °F 39.2 °F 44.6 °F 93% 30.04 in 6.2 mi WSW 18.4 mph 32.2 mph N/A Rain Light Rain Showers
6:00 PM 47 °F - 45 °F 90% 30.06 in 7 mi WSW 15.7 mph - - Rain Light Rain Showers
6:00 PM 46.4 °F 39.8 °F 44.6 °F 93% 30.04 in 6.2 mi WSW 16.1 mph - N/A Rain Light Rain Showers
6:30 PM 46.4 °F 38.7 °F 44.6 °F 93% 30.04 in 6.2 mi WSW 20.7 mph - N/A Rain Light Rain Showers
7:00 PM 46.4 °F 38.5 °F 42.8 °F 87% 30.06 in 6.2 mi West 21.9 mph - N/A   Mostly Cloudy